This demonstration page uses our WeatherBlox Daily Observations layout. Learn more.

Left ArrowRight Arrow

39.01783, -85.05884

Hourly Observations for November 25, 2022

Temp ( °F °C ) Dew Point ( °F °C ) Humidity (%) Winds ( mph kmh ) Pressure ( in mb ) Visibility ( mi km ) Precip ( " mm )
12:52 am 00:52 Cloudy 55 12.8 37 2.8 51 51 W 7 11 30.07 1018 10 16 0.00 0.00
1:37 am 01:37 Cloudy 54 12.2 38 3.3 54 54 W 10 17 30.08 1019 10 16 0.00 0.00
1:52 am 01:52 Cloudy 54 12.2 38 3.3 54 54 W 9 15 30.06 1018 10 16 0.00 0.00
2:52 am 02:52 Cloudy with Light Rain 49 9.4 45 7.2 86 86 W 12 19 30.09 1019 4 6 0.01 0.25
3:41 am 03:41 Cloudy with Light Rain 48 8.9 47 8.3 96 96 SW 8 13 30.10 1019 4 6 0.04 1.02
3:52 am 03:52 Cloudy with Light Rain 47 8.3 47 8.3 100 100 SW 7 11 30.09 1019 4 6 0.04 1.02
4:09 am 04:09 Cloudy with Light Rain 47 8.3 47 8.3 100 100 WSW 6 9 30.11 1019 3 5 0.01 0.25
4:52 am 04:52 Cloudy with Mist and Fog 47 8.3 47 8.3 100 100 W 8 13 30.09 1019 4 6 0.03 0.76
5:43 am 05:43 Cloudy with Light Rain 47 8.3 47 8.3 100 100 W 8 13 30.12 1020 3 4 0.01 0.13
5:52 am 05:52 Cloudy with Light Rain 47 8.3 47 8.3 100 100 W 8 13 30.10 1019 3 5 0.01 0.13
6:31 am 06:31 Cloudy with Mist and Fog 47 8.3 47 8.3 100 100 W 7 11 30.14 1021 3 5 0.01 0.25
6:52 am 06:52 Cloudy with Mist and Fog 47 8.3 47 8.3 100 100 WNW 10 17 30.12 1020 5 8 0.01 0.25
7:36 am 07:36 Cloudy with Mist and Fog 48 8.9 47 8.3 96 96 NW 10 17 30.15 1021 5 8 0.00 0.00
7:52 am 07:52 Cloudy with Mist and Fog 48 8.9 47 8.3 96 96 WNW 8 13 30.14 1021 4 6 0.00 0.00
8:52 am 08:52 Cloudy with Mist and Fog 48 8.9 47 8.3 96 96 WNW 8 13 30.14 1021 3 5 0.00 0.00
9:33 am 09:33 Mostly Cloudy with Mist and Fog 49 9.4 47 8.3 93 93 NW 13 20 30.17 1022 3 5 0.00 0.00
9:52 am 09:52 Cloudy with Mist and Fog 48 8.9 46 7.8 93 93 NW 12 19 30.16 1021 4 6 0.00 0.00
10:52 am 10:52 Cloudy with Haze 49 9.4 44 6.7 83 83 NNW 10 17 30.17 1022 5 8 0.00 0.00
11:52 am 11:52 Cloudy with Haze 49 9.4 43 6.1 80 80 NNW 12 19 30.17 1022 6 10 0.00 0.00
12:17 pm 12:17 Hazy 51 10.6 43 6.1 74 74 NW 12 19 30.18 1022 6 10 0.00 0.00
12:52 pm 12:52 Partly Cloudy 52 11.1 42 5.6 69 69 VRB 7 11 30.16 1021 7 11 0.00 0.00
1:52 pm 13:52 Partly Cloudy 53 11.7 40 4.4 61 61 N 6 9 30.16 1021 7 11 0.00 0.00
2:52 pm 14:52 Sunny 54 12.2 38 3.3 54 54 VRB 3 6 30.16 1021 8 13 0.00 0.00
3:52 pm 15:52 Sunny 54 12.2 36 2.2 50 50 WNW 3 6 30.16 1021 9 14 0.00 0.00
4:52 pm 16:52 Sunny 50 10 37 2.8 61 61 WNW 6 9 30.16 1022 9 14 0.00 0.00
5:52 pm 17:52 Clear 47 8.3 35 1.7 63 63 WNW 7 11 30.17 1022 9 14 0.00 0.00
6:52 pm 18:52 Clear 44 6.7 34 1.1 67 67 NW 6 9 30.18 1022 9 14 0.00 0.00
7:52 pm 19:52 Clear 41 5 34 1.1 76 76 WNW 6 9 30.19 1023 9 14 0.00 0.00
8:52 pm 20:52 Clear 40 4.4 34 1.1 79 79 S 3 6 30.21 1023 8 13 0.00 0.00
9:52 pm 21:52 Clear 36 2.2 33 0.6 89 89 W 6 9 30.22 1023 7 11 0.00 0.00
10:52 pm 22:52 Clear 39 3.9 34 1.1 82 82 W 3 6 30.21 1023 7 11 0.00 0.00
11:52 pm 23:52 Clear 36 2.2 33 0.6 89 89 Calm 30.22 1023 7 11 0.00 0.00

Powered by AerisWeather